Location: Bijele Vode
(45.2833°N, 16.2000°E)
Time: 09:48:36
(UTC+00:00)

CZ-2C R/B - Pass Details

Date: 19 January 2021
Orbit: 390 x 584 km, 35.0° (Epoch: 25 February)

Event Time Altitude Azimuth Distance (km) Brightness Sun altitude
Rises 05:32:35 0° 223° (SW) 2,641 4.6 -9.8°
Reaches altitude 10° 05:35:54 10° 195° (SSW) 1,705 3.9 -9.2°
Maximum altitude 05:37:44 13° 167° (SSE) 1,497 4.0 -8.9°
Drops below altitude 10° 05:39:32 10° 139° (SE) 1,649 4.8 -8.6°
Sets 05:42:37 0° 110° (ESE) 2,475 7.3 -8.1°
